| time (UTC) | temp F | wind direction | speed MPH | gust MPH | rain 1hr in | rain 24hr in | rain mn in | humidity % | barometer mb |
| 20260502194802 | 63 | 287 | 2.0 | 7.0 | 0.00 | 0.01 | 0.01 | 43 | 1023.8 |
| 20260502194303 | 62 | 20 | 3.0 | 8.0 | 0.00 | 0.01 | 0.01 | 43 | 1024.0 |
| 20260502193802 | 62 | 92 | 2.0 | 8.0 | 0.00 | 0.01 | 0.01 | 44 | 1024.1 |
| 20260502193302 | 62 | 9 | 2.0 | 7.0 | 0.00 | 0.01 | 0.01 | 45 | 1024.1 |
| 20260502193023 | 61 | 74 | 3.0 | 7.0 | 0.00 | 0.01 | 0.01 | 44 | 1024.2 |
| 20260502192304 | 61 | 71 | 3.0 | 9.0 | 0.00 | 0.01 | 0.01 | 44 | 1024.2 |
| 20260502191803 | 61 | 30 | 3.0 | 9.0 | 0.00 | 0.01 | 0.01 | 44 | 1024.3 |
| 20260502191302 | 61 | 331 | 2.0 | 5.0 | 0.00 | 0.01 | 0.01 | 44 | 1024.3 |
| 20260502190802 | 61 | 223 | 2.0 | 5.0 | 0.00 | 0.01 | 0.01 | 44 | 1024.4 |
| 20260502190301 | 61 | 106 | 2.0 | 6.0 | 0.00 | 0.01 | 0.01 | 45 | 1024.5 |
| 20260502185802 | 60 | 80 | 3.0 | 8.0 | 0.00 | 0.01 | 0.01 | 44 | 1024.6 |
| 20260502185305 | 61 | 96 | 3.0 | 8.0 | 0.00 | 0.01 | 0.01 | 45 | 1024.6 |
| 20260502184802 | 60 | 104 | 2.0 | 7.0 | 0.00 | 0.01 | 0.01 | 45 | 1024.7 |
| 20260502184302 | 60 | 58 | 2.0 | 8.0 | 0.00 | 0.01 | 0.01 | 45 | 1024.6 |
| 20260502183801 | 60 | 32 | 3.0 | 8.0 | 0.00 | 0.01 | 0.01 | 45 | 1024.7 |
| 20260502183526 | 60 | 69 | 2.0 | 8.0 | 0.00 | 0.01 | 0.01 | 45 | 1024.7 |
| 20260502182800 | 60 | 29 | 2.0 | 8.0 | 0.00 | 0.01 | 0.01 | 46 | 1024.7 |
| 20260502182305 | 59 | 161 | 3.0 | 7.0 | 0.00 | 0.01 | 0.01 | 45 | 1024.9 |
| 20260502181800 | 59 | 67 | 3.0 | 7.0 | 0.00 | 0.01 | 0.01 | 46 | 1025.0 |
| 20260502181527 | 59 | 130 | 2.0 | 6.0 | 0.00 | 0.01 | 0.01 | 47 | 1025.0 |
| 20260502180804 | 59 | 90 | 4.0 | 10.0 | 0.00 | 0.01 | 0.01 | 47 | 1025.0 |
| 20260502180302 | 59 | 69 | 3.0 | 10.0 | 0.00 | 0.01 | 0.01 | 47 | 1025.0 |
| 20260502170519 | 58 | 69 | 3.0 | 8.0 | 0.00 | 0.01 | 0.01 | 50 | 1025.5 |
| 20260502164302 | 56 | 44 | 2.0 | 8.0 | 0.00 | 0.01 | 0.01 | 52 | 1025.5 |
| 20260502163801 | 57 | 53 | 2.0 | 8.0 | 0.00 | 0.02 | 0.01 | 51 | 1025.5 |
| 20260502163301 | 57 | 132 | 3.0 | 8.0 | 0.00 | 0.03 | 0.01 | 51 | 1025.5 |
| 20260502162801 | 57 | 119 | 3.0 | 8.0 | 0.00 | 0.03 | 0.01 | 51 | 1025.6 |
| 20260502162301 | 57 | 131 | 2.0 | 8.0 | 0.00 | 0.03 | 0.01 | 52 | 1025.5 |
| 20260502161800 | 56 | 144 | 2.0 | 5.0 | 0.00 | 0.03 | 0.01 | 54 | 1025.5 |
| 20260502161527 | 56 | 123 | 4.0 | 11.0 | 0.00 | 0.03 | 0.01 | 54 | 1025.4 |
| 20260502160801 | 56 | 129 | 4.0 | 11.0 | 0.00 | 0.03 | 0.01 | 55 | 1025.5 |
| 20260502160301 | 55 | 140 | 2.0 | 7.0 | 0.00 | 0.03 | 0.01 | 57 | 1025.4 |
| 20260502152301 | 54 | 210 | 1.0 | 4.0 | 0.00 | 0.03 | 0.01 | 64 | 1025.2 |
| 20260502151801 | 53 | 214 | 3.0 | 5.0 | 0.00 | 0.03 | 0.01 | 63 | 1025.2 |
| 20260502151301 | 53 | 210 | 2.0 | 5.0 | 0.00 | 0.03 | 0.01 | 63 | 1025.2 |
| 20260502150800 | 53 | 116 | 1.0 | 6.0 | 0.00 | 0.03 | 0.01 | 64 | 1025.1 |
| 20260502150302 | 53 | 116 | 2.0 | 7.0 | 0.00 | 0.03 | 0.01 | 64 | 1025.1 |
| 20260502130301 | 50 | 105 | 2.0 | 4.0 | 0.00 | 0.02 | 0.00 | 75 | 1024.2 |
| 20260502123801 | 50 | 84 | 3.0 | 7.0 | 0.00 | 0.02 | 0.00 | 74 | 1023.8 |
| 20260502123303 | 50 | 105 | 4.0 | 7.0 | 0.00 | 0.02 | 0.00 | 75 | 1023.7 |
| 20260502122801 | 50 | 90 | 4.0 | 7.0 | 0.00 | 0.02 | 0.00 | 75 | 1023.8 |
| 20260502122300 | 50 | 105 | 4.0 | 7.0 | 0.00 | 0.02 | 0.00 | 76 | 1023.7 |
| 20260502121802 | 50 | 133 | 4.0 | 7.0 | 0.00 | 0.02 | 0.00 | 76 | 1023.8 |
| 20260502121301 | 50 | 115 | 4.0 | 7.0 | 0.00 | 0.02 | 0.00 | 75 | 1023.7 |
| 20260502120801 | 50 | 138 | 3.0 | 7.0 | 0.00 | 0.02 | 0.00 | 75 | 1023.6 |
| 20260502120301 | 50 | 137 | 3.0 | 8.0 | 0.00 | 0.02 | 0.00 | 74 | 1023.6 |
| 20260502115305 | 50 | 119 | 3.0 | 8.0 | 0.00 | 0.02 | 0.00 | 74 | 1023.5 |
| 20260502114801 | 50 | 102 | 3.0 | 7.0 | 0.00 | 0.02 | 0.00 | 74 | 1023.6 |
| 20260502114519 | 50 | 111 | 3.0 | 7.0 | 0.00 | 0.02 | 0.00 | 74 | 1023.5 |
| 20260502113801 | 50 | 111 | 3.0 | 6.0 | 0.00 | 0.02 | 0.00 | 73 | 1023.5 |
| 20260502113519 | 50 | 103 | 2.0 | 6.0 | 0.00 | 0.02 | 0.00 | 75 | 1023.6 |
| 20260502112801 | 50 | 111 | 0.0 | 3.0 | 0.00 | 0.02 | 0.00 | 76 | 1023.4 |
| 20260502112305 | 50 | 74 | 0.0 | 0.0 | 0.00 | 0.02 | 0.00 | 77 | 1023.4 |
| 20260502112028 | 50 | 74 | 0.0 | 0.0 | 0.00 | 0.02 | 0.00 | 77 | 1023.5 |
| 20260502111301 | 50 | 305 | 0.0 | 0.0 | 0.00 | 0.02 | 0.00 | 76 | 1023.5 |
| 20260502110802 | 50 | 305 | 0.0 | 0.0 | 0.00 | 0.02 | 0.00 | 77 | 1023.6 |
| 20260502110302 | 50 | 305 | 0.0 | 0.0 | 0.00 | 0.02 | 0.00 | 77 | 1023.6 |
| 20260502105801 | 50 | 305 | 0.0 | 0.0 | 0.00 | 0.02 | 0.00 | 76 | 1023.6 |
| 20260502105305 | 50 | 305 | 0.0 | 0.0 | 0.00 | 0.02 | 0.00 | 77 | 1023.6 |
| 20260502105024 | 50 | 305 | 0.0 | 0.0 | 0.00 | 0.02 | 0.00 | 77 | 1023.5 |
| 20260502104301 | 50 | 239 | 0.0 | 0.0 | 0.00 | 0.02 | 0.00 | 76 | 1023.4 |
| 20260502103800 | 50 | 239 | 0.0 | 0.0 | 0.00 | 0.02 | 0.00 | 75 | 1023.4 |
| 20260502103302 | 50 | 103 | 0.0 | 0.0 | 0.00 | 0.02 | 0.00 | 74 | 1023.4 |
| 20260502102802 | 50 | 103 | 0.0 | 0.0 | 0.00 | 0.02 | 0.00 | 73 | 1023.3 |
| 20260502102305 | 50 | 103 | 0.0 | 0.0 | 0.00 | 0.02 | 0.00 | 72 | 1023.3 |
| 20260502101801 | 50 | 103 | 0.0 | 0.0 | 0.00 | 0.02 | 0.00 | 72 | 1023.3 |
| 20260502101517 | 50 | 103 | 0.0 | 0.0 | 0.00 | 0.02 | 0.00 | 71 | 1023.4 |
| 20260502100756 | 50 | 103 | 0.0 | 0.0 | 0.00 | 0.02 | 0.00 | 70 | 1023.3 |
| 20260502100254 | 51 | 103 | 0.0 | 0.0 | 0.00 | 0.02 | 0.00 | 70 | 1023.3 |
| 20260502100219 | 51 | 103 | 0.0 | 2.0 | 0.00 | 0.03 | 0.00 | 69 | 1023.1 |
| 20260502091236 | 51 | 136 | 0.0 | 4.0 | 0.00 | 0.07 | 0.00 | 68 | 1022.8 |
| 20260502090957 | 51 | 165 | 0.0 | 0.0 | 0.00 | 0.08 | 0.00 | 68 | 1023.1 |
| 20260502090234 | 51 | 290 | 0.0 | 0.0 | 0.00 | 0.08 | 0.00 | 68 | 1023.1 |
| 20260502071207 | 51 | 36 | 4.0 | 10.0 | 0.00 | 0.17 | 0.00 | 67 | 1022.4 |
| 20260502070707 | 51 | 57 | 4.0 | 9.0 | 0.00 | 0.17 | 0.00 | 68 | 1022.3 |
| 20260502070203 | 51 | 73 | 3.0 | 9.0 | 0.00 | 0.17 | 0.00 | 68 | 1022.4 |
| 20260502065930 | 51 | 51 | 3.0 | 8.0 | 0.00 | 0.17 | 0.00 | 67 | 1022.4 |
| 20260502065205 | 51 | 59 | 3.0 | 8.0 | 0.00 | 0.17 | 0.00 | 67 | 1022.3 |
| 20260502065143 | 51 | 61 | 3.0 | 6.0 | 0.00 | 0.17 | 0.00 | 67 | 1022.3 |
| 20260502064418 | 51 | 60 | 3.0 | 6.0 | 0.00 | 0.17 | 0.00 | 67 | 1022.3 |
| 20260502063702 | 51 | 67 | 3.0 | 6.0 | 0.00 | 0.17 | 0.00 | 67 | 1022.3 |
| 20260502063202 | 51 | 56 | 3.0 | 9.0 | 0.00 | 0.17 | 0.00 | 67 | 1022.2 |
| 20260502062702 | 52 | 56 | 4.0 | 9.0 | 0.00 | 0.17 | 0.00 | 67 | 1022.2 |
| 20260502062202 | 52 | 94 | 4.0 | 9.0 | 0.00 | 0.17 | 0.00 | 66 | 1022.0 |
| 20260502061701 | 52 | 67 | 4.0 | 8.0 | 0.00 | 0.17 | 0.00 | 66 | 1021.9 |
| 20260502061202 | 52 | 74 | 3.0 | 8.0 | 0.00 | 0.17 | 0.00 | 66 | 1022.0 |
| 20260502060701 | 52 | 61 | 3.0 | 6.0 | 0.00 | 0.17 | 0.00 | 66 | 1022.2 |
| 20260502060201 | 52 | 54 | 3.0 | 6.0 | 0.00 | 0.17 | 0.00 | 66 | 1022.2 |
| 20260502055701 | 52 | 70 | 3.0 | 8.0 | 0.00 | 0.17 | 0.17 | 65 | 1022.0 |
| 20260502055429 | 52 | 55 | 3.0 | 8.0 | 0.00 | 0.17 | 0.17 | 65 | 1022.0 |
| 20260502054702 | 52 | 79 | 3.0 | 11.0 | 0.00 | 0.17 | 0.17 | 65 | 1022.0 |
| 20260502054423 | 52 | 71 | 3.0 | 11.0 | 0.00 | 0.17 | 0.17 | 65 | 1022.0 |
| 20260502053926 | 52 | 67 | 3.0 | 8.0 | 0.00 | 0.17 | 0.17 | 65 | 1022.2 |
| 20260502053203 | 53 | 61 | 4.0 | 8.0 | 0.00 | 0.17 | 0.17 | 64 | 1022.2 |
| 20260502052701 | 53 | 78 | 4.0 | 10.0 | 0.00 | 0.17 | 0.17 | 64 | 1022.0 |
| 20260502052201 | 53 | 64 | 4.0 | 10.0 | 0.00 | 0.17 | 0.17 | 64 | 1022.0 |
| 20260502051701 | 53 | 40 | 4.0 | 10.0 | 0.00 | 0.17 | 0.17 | 64 | 1022.0 |
| 20260502051420 | 53 | 79 | 4.0 | 9.0 | 0.00 | 0.17 | 0.17 | 63 | 1022.0 |
| 20260502050701 | 53 | 40 | 4.0 | 9.0 | 0.00 | 0.17 | 0.17 | 63 | 1021.9 |
| 20260502050200 | 53 | 71 | 4.0 | 8.0 | 0.00 | 0.17 | 0.17 | 63 | 1021.8 |
| 20260502045702 | 53 | 63 | 4.0 | 9.0 | 0.00 | 0.17 | 0.17 | 63 | 1021.8 |
| 20260502045201 | 53 | 62 | 4.0 | 9.0 | 0.00 | 0.17 | 0.17 | 63 | 1021.8 |
| 20260502044702 | 53 | 47 | 4.0 | 9.0 | 0.00 | 0.17 | 0.17 | 63 | 1021.9 |
| 20260502044424 | 53 | 42 | 4.0 | 9.0 | 0.00 | 0.17 | 0.17 | 64 | 1021.8 |
| 20260502043701 | 53 | 36 | 4.0 | 10.0 | 0.00 | 0.17 | 0.17 | 64 | 1021.7 |
| 20260502043201 | 53 | 53 | 5.0 | 10.0 | 0.00 | 0.17 | 0.17 | 64 | 1021.5 |
| 20260502042701 | 53 | 60 | 5.0 | 10.0 | 0.00 | 0.17 | 0.17 | 64 | 1021.5 |
| 20260502042205 | 53 | 66 | 4.0 | 10.0 | 0.00 | 0.17 | 0.17 | 64 | 1021.3 |
| 20260502041701 | 53 | 76 | 4.0 | 8.0 | 0.00 | 0.17 | 0.17 | 64 | 1021.4 |
| 20260502041202 | 53 | 76 | 4.0 | 8.0 | 0.00 | 0.17 | 0.17 | 64 | 1021.4 |
| 20260502040919 | 53 | 78 | 4.0 | 8.0 | 0.00 | 0.17 | 0.17 | 64 | 1021.4 |
| 20260502040203 | 53 | 63 | 3.0 | 8.0 | 0.00 | 0.17 | 0.17 | 64 | 1021.3 |
| 20260502035701 | 53 | 77 | 4.0 | 11.0 | 0.00 | 0.17 | 0.17 | 64 | 1021.1 |
| 20260502035428 | 53 | 72 | 5.0 | 11.0 | 0.00 | 0.17 | 0.17 | 63 | 1021.0 |
| 20260502034700 | 54 | 89 | 6.0 | 11.0 | 0.00 | 0.17 | 0.17 | 63 | 1021.0 |
| 20260502034201 | 54 | 63 | 8.0 | 14.0 | 0.00 | 0.17 | 0.17 | 62 | 1020.9 |
| 20260502033923 | 54 | 55 | 9.0 | 16.0 | 0.00 | 0.17 | 0.17 | 62 | 1020.9 |
| 20260502033202 | 54 | 106 | 9.0 | 16.0 | 0.00 | 0.17 | 0.17 | 62 | 1020.9 |
| 20260502032700 | 54 | 89 | 8.0 | 14.0 | 0.00 | 0.17 | 0.17 | 63 | 1020.8 |
| 20260502032201 | 54 | 117 | 8.0 | 13.0 | 0.00 | 0.17 | 0.17 | 63 | 1020.9 |
| 20260502031920 | 54 | 75 | 8.0 | 13.0 | 0.00 | 0.17 | 0.17 | 63 | 1021.0 |
| 20260502031201 | 54 | 94 | 8.0 | 13.0 | 0.00 | 0.17 | 0.17 | 63 | 1021.0 |
| 20260502030701 | 54 | 37 | 7.0 | 14.0 | 0.00 | 0.17 | 0.17 | 63 | 1020.9 |
| 20260502030205 | 54 | 96 | 5.0 | 14.0 | 0.00 | 0.17 | 0.17 | 64 | 1020.9 |
| 20260502025702 | 54 | 83 | 4.0 | 11.0 | 0.00 | 0.17 | 0.17 | 64 | 1020.9 |
| 20260502025202 | 54 | 86 | 4.0 | 8.0 | 0.00 | 0.17 | 0.17 | 64 | 1020.8 |
| 20260502024702 | 54 | 69 | 4.0 | 8.0 | 0.00 | 0.17 | 0.17 | 64 | 1020.7 |
| 20260502024201 | 55 | 82 | 4.0 | 9.0 | 0.00 | 0.17 | 0.17 | 64 | 1020.5 |
| 20260502023925 | 55 | 71 | 6.0 | 11.0 | 0.00 | 0.17 | 0.17 | 63 | 1020.4 |
| 20260502023201 | 55 | 70 | 7.0 | 14.0 | 0.00 | 0.17 | 0.17 | 63 | 1020.2 |
| 20260502023142 | 55 | 83 | 7.0 | 14.0 | 0.00 | 0.17 | 0.17 | 63 | 1020.2 |
| 20260502022201 | 55 | 48 | 7.0 | 14.0 | 0.00 | 0.17 | 0.17 | 63 | 1019.9 |
| 20260502021701 | 55 | 71 | 7.0 | 14.0 | 0.00 | 0.17 | 0.17 | 63 | 1019.8 |
| 20260502021201 | 56 | 54 | 5.0 | 11.0 | 0.00 | 0.17 | 0.17 | 63 | 1019.7 |
| 20260502020701 | 56 | 49 | 6.0 | 13.0 | 0.00 | 0.17 | 0.17 | 62 | 1019.5 |
| 20260502020201 | 56 | 76 | 7.0 | 13.0 | 0.00 | 0.17 | 0.17 | 62 | 1019.3 |
| 20260502015701 | 56 | 86 | 7.0 | 12.0 | 0.00 | 0.17 | 0.17 | 62 | 1019.1 |
| 20260502015203 | 56 | 61 | 7.0 | 12.0 | 0.00 | 0.17 | 0.17 | 61 | 1018.9 |
| 20260502014921 | 57 | 71 | 8.0 | 12.0 | 0.00 | 0.17 | 0.17 | 61 | 1018.8 |
| 20260502014421 | 57 | 86 | 8.0 | 13.0 | 0.00 | 0.17 | 0.17 | 60 | 1018.7 |
| 20260502013921 | 57 | 101 | 8.0 | 15.0 | 0.00 | 0.17 | 0.17 | 60 | 1018.6 |
| 20260502013201 | 58 | 73 | 7.0 | 15.0 | 0.00 | 0.17 | 0.17 | 59 | 1018.4 |
| 20260502012701 | 58 | 84 | 7.0 | 15.0 | 0.00 | 0.17 | 0.17 | 58 | 1018.4 |
| 20260502012201 | 58 | 75 | 7.0 | 15.0 | 0.00 | 0.17 | 0.17 | 57 | 1018.3 |
| 20260502011922 | 59 | 93 | 7.0 | 13.0 | 0.00 | 0.17 | 0.17 | 56 | 1018.3 |
| 20260502011645 | 59 | 72 | 8.0 | 14.0 | 0.00 | 0.17 | 0.17 | 56 | 1018.2 |
| 20260502010701 | 59 | 107 | 7.0 | 14.0 | 0.00 | 0.17 | 0.17 | 55 | 1018.2 |
| 20260502010201 | 60 | 44 | 7.0 | 14.0 | 0.00 | 0.17 | 0.17 | 55 | 1018.2 |
| 20260502005703 | 60 | 90 | 8.0 | 14.0 | 0.00 | 0.17 | 0.17 | 54 | 1018.1 |
| 20260502005201 | 60 | 31 | 8.0 | 14.0 | 0.00 | 0.17 | 0.17 | 53 | 1018.1 |
| 20260502004701 | 60 | 84 | 8.0 | 15.0 | 0.00 | 0.17 | 0.17 | 54 | 1018.0 |
| 20260502004201 | 61 | 99 | 8.0 | 15.0 | 0.00 | 0.17 | 0.17 | 54 | 1017.9 |
| 20260502003701 | 61 | 107 | 7.0 | 13.0 | 0.00 | 0.17 | 0.17 | 54 | 1017.8 |
| 20260502003201 | 61 | 108 | 7.0 | 12.0 | 0.00 | 0.17 | 0.17 | 53 | 1017.7 |
| 20260502002921 | 61 | 86 | 7.0 | 12.0 | 0.00 | 0.17 | 0.17 | 53 | 1017.6 |
| 20260502002201 | 61 | 78 | 7.0 | 13.0 | 0.00 | 0.17 | 0.17 | 52 | 1017.6 |
| 20260502001701 | 62 | 69 | 7.0 | 13.0 | 0.00 | 0.17 | 0.17 | 53 | 1017.6 |
| 20260502001201 | 62 | 88 | 6.0 | 14.0 | 0.00 | 0.17 | 0.17 | 53 | 1017.6 |
| 20260502000701 | 62 | 63 | 7.0 | 14.0 | 0.00 | 0.17 | 0.17 | 53 | 1017.4 |
| 20260502000203 | 62 | 46 | 6.0 | 14.0 | 0.00 | 0.17 | 0.17 | 52 | 1017.3 |
| 20260501235701 | 62 | 82 | 6.0 | 14.0 | 0.00 | 0.17 | 0.17 | 52 | 1017.3 |
| 20260501235202 | 62 | 81 | 5.0 | 12.0 | 0.00 | 0.17 | 0.17 | 52 | 1017.2 |
| 20260501234701 | 63 | 78 | 6.0 | 11.0 | 0.00 | 0.17 | 0.17 | 52 | 1017.0 |
| 20260501234202 | 63 | 84 | 8.0 | 16.0 | 0.00 | 0.17 | 0.17 | 52 | 1017.0 |
| 20260501233701 | 63 | 93 | 6.0 | 16.0 | 0.00 | 0.17 | 0.17 | 52 | 1016.9 |
| 20260501233201 | 63 | 96 | 6.0 | 14.0 | 0.00 | 0.17 | 0.17 | 52 | 1016.9 |
| 20260501232701 | 63 | 96 | 7.0 | 14.0 | 0.00 | 0.17 | 0.17 | 52 | 1016.9 |
| 20260501232200 | 63 | 89 | 7.0 | 14.0 | 0.00 | 0.18 | 0.17 | 51 | 1016.9 |
| 20260501231701 | 63 | 107 | 7.0 | 12.0 | 0.00 | 0.19 | 0.17 | 52 | 1016.9 |
| 20260501231200 | 63 | 67 | 7.0 | 15.0 | 0.00 | 0.19 | 0.17 | 51 | 1016.9 |
| 20260501230700 | 63 | 65 | 6.0 | 15.0 | 0.00 | 0.19 | 0.17 | 51 | 1016.7 |
| 20260501230201 | 63 | 91 | 7.0 | 13.0 | 0.00 | 0.19 | 0.17 | 51 | 1016.5 |
| 20260501225701 | 63 | 62 | 7.0 | 14.0 | 0.00 | 0.19 | 0.17 | 51 | 1016.5 |
| 20260501225201 | 63 | 59 | 7.0 | 14.0 | 0.00 | 0.19 | 0.17 | 51 | 1016.4 |
| 20260501224659 | 64 | 76 | 6.0 | 12.0 | 0.00 | 0.19 | 0.17 | 50 | 1016.4 |
| 20260501224159 | 64 | 121 | 6.0 | 12.0 | 0.00 | 0.19 | 0.17 | 48 | 1016.4 |
| 20260501223659 | 64 | 89 | 6.0 | 12.0 | 0.00 | 0.19 | 0.17 | 49 | 1016.3 |
| 20260501223159 | 63 | 30 | 6.0 | 11.0 | 0.00 | 0.19 | 0.17 | 47 | 1016.2 |
| 20260501222659 | 63 | 44 | 6.0 | 12.0 | 0.00 | 0.19 | 0.17 | 48 | 1016.3 |
| 20260501222159 | 63 | 40 | 7.0 | 14.0 | 0.00 | 0.19 | 0.17 | 50 | 1016.4 |
| 20260501221659 | 63 | 38 | 7.0 | 14.0 | 0.00 | 0.19 | 0.17 | 50 | 1016.4 |
| 20260501221159 | 63 | 52 | 5.0 | 14.0 | 0.00 | 0.19 | 0.17 | 50 | 1016.4 |
| 20260501220921 | 62 | 66 | 3.0 | 11.0 | 0.00 | 0.19 | 0.17 | 53 | 1016.3 |
| 20260501220159 | 62 | 40 | 3.0 | 5.0 | 0.00 | 0.19 | 0.17 | 56 | 1016.4 |
| 20260501215927 | 61 | 74 | 3.0 | 8.0 | 0.00 | 0.19 | 0.17 | 58 | 1016.4 |
| 20260501215155 | 61 | 18 | 3.0 | 10.0 | 0.00 | 0.19 | 0.17 | 58 | 1016.4 |
| 20260501214656 | 61 | 92 | 4.0 | 10.0 | 0.00 | 0.19 | 0.17 | 57 | 1016.5 |
| 20260501214155 | 61 | 5 | 5.0 | 10.0 | 0.00 | 0.19 | 0.17 | 58 | 1016.7 |
| 20260501213655 | 61 | 33 | 6.0 | 11.0 | 0.00 | 0.19 | 0.17 | 57 | 1016.8 |
| 20260501213156 | 61 | 14 | 7.0 | 14.0 | 0.00 | 0.19 | 0.17 | 58 | 1016.8 |
| 20260501212658 | 61 | 55 | 8.0 | 14.0 | 0.00 | 0.19 | 0.17 | 57 | 1016.9 |
| 20260501212155 | 61 | 53 | 7.0 | 14.0 | 0.00 | 0.19 | 0.17 | 57 | 1016.9 |
| 20260501211917 | 61 | 46 | 8.0 | 17.0 | 0.00 | 0.19 | 0.17 | 58 | 1016.9 |
| 20260501211154 | 61 | 44 | 7.0 | 17.0 | 0.00 | 0.19 | 0.17 | 59 | 1017.0 |
| 20260501210652 | 61 | 55 | 7.0 | 13.0 | 0.00 | 0.19 | 0.17 | 59 | 1017.0 |
| 20260501210152 | 60 | 40 | 8.0 | 15.0 | 0.00 | 0.19 | 0.17 | 60 | 1017.0 |
| 20260501205912 | 60 | 70 | 7.0 | 15.0 | 0.00 | 0.19 | 0.17 | 60 | 1017.0 |
| 20260501205153 | 60 | 58 | 6.0 | 13.0 | 0.00 | 0.19 | 0.17 | 62 | 1017.1 |
| 20260501204653 | 60 | 5 | 5.0 | 10.0 | 0.00 | 0.19 | 0.17 | 65 | 1017.0 |
| 20260501204152 | 60 | 13 | 7.0 | 12.0 | 0.00 | 0.19 | 0.17 | 66 | 1017.0 |
| 20260501203653 | 60 | 38 | 8.0 | 12.0 | 0.00 | 0.19 | 0.17 | 65 | 1017.1 |
| 20260501203153 | 60 | 28 | 7.0 | 14.0 | 0.00 | 0.19 | 0.17 | 64 | 1017.1 |
| 20260501202653 | 60 | 82 | 7.0 | 14.0 | 0.00 | 0.19 | 0.17 | 62 | 1017.1 |
| 20260501202153 | 60 | 113 | 6.0 | 11.0 | 0.00 | 0.19 | 0.17 | 62 | 1017.1 |
| 20260501201653 | 60 | 64 | 6.0 | 11.0 | 0.00 | 0.19 | 0.17 | 63 | 1017.0 |
| 20260501201153 | 60 | 36 | 6.0 | 11.0 | 0.00 | 0.19 | 0.17 | 63 | 1017.0 |
| 20260501200653 | 60 | 50 | 6.0 | 15.0 | 0.00 | 0.19 | 0.17 | 63 | 1017.0 |
| 20260501200152 | 60 | 43 | 6.0 | 15.0 | 0.00 | 0.19 | 0.17 | 63 | 1017.1 |
| 20260501195653 | 60 | 55 | 5.0 | 12.0 | 0.00 | 0.19 | 0.17 | 65 | 1017.0 |
| 20260501195152 | 60 | 36 | 6.0 | 11.0 | 0.00 | 0.19 | 0.17 | 66 | 1016.9 |